This is the latest recevied weather packets stored in our database for station/object R1CBW-13. If no packets are shown the sender has not sent any weather packets the latest 10 day(s).
| Time | Temp. | Humidity | Pressure | Rain* | Wind** | Luminosity | Snow |
|---|---|---|---|---|---|---|---|
| 1778390509 | 11.67° C | 33% | 1021.3 hPa | 0 mm | - | - | - |
| 1778390449 | 11.67° C | 34% | 1021.2 hPa | 0 mm | - | - | - |
| 1778390389 | 11.67° C | 33% | 1021.2 hPa | 0 mm | - | - | - |
| 1778390329 | 11.11° C | 34% | 1021.3 hPa | 0 mm | - | - | - |
| 1778390269 | 11.11° C | 34% | 1021.3 hPa | 0 mm | - | - | - |
| 1778390209 | 11.11° C | 34% | 1021.3 hPa | 0 mm | - | - | - |
| 1778390149 | 11.11° C | 34% | 1021.3 hPa | 0 mm | - | - | - |
| 1778390089 | 11.11° C | 34% | 1021.3 hPa | 0 mm | - | - | - |
| 1778390029 | 11.11° C | 34% | 1021.3 hPa | 0 mm | - | - | - |
| 1778389969 | 10.56° C | 35% | 1021.3 hPa | 0 mm | - | - | - |
| 1778389909 | 10.56° C | 35% | 1021.3 hPa | 0 mm | - | - | - |
| 1778389849 | 10.56° C | 34% | 1021.3 hPa | 0 mm | - | - | - |
| 1778389789 | 11.11° C | 34% | 1021.3 hPa | 0 mm | - | - | - |
| 1778389729 | 11.11° C | 34% | 1021.3 hPa | 0 mm | - | - | - |
| 1778389669 | 11.67° C | 33% | 1021.5 hPa | 0 mm | - | - | - |
| 1778389609 | 12.22° C | 32% | 1021.4 hPa | 0 mm | - | - | - |
| 1778389549 | 12.22° C | 32% | 1021.4 hPa | 0 mm | - | - | - |
| 1778389489 | 12.22° C | 32% | 1021.4 hPa | 0 mm | - | - | - |
| 1778389429 | 11.67° C | 34% | 1021.5 hPa | 0 mm | - | - | - |
| 1778389369 | 11.67° C | 33% | 1021.5 hPa | 0 mm | - | - | - |
| 1778389309 | 11.11° C | 34% | 1021.5 hPa | 0 mm | - | - | - |
| 1778389249 | 11.67° C | 34% | 1021.5 hPa | 0 mm | - | - | - |
| 1778389189 | 11.67° C | 34% | 1021.6 hPa | 0 mm | - | - | - |
| 1778389129 | 11.67° C | 34% | 1021.5 hPa | 0 mm | - | - | - |
| 1778389069 | 11.11° C | 34% | 1021.5 hPa | 0 mm | - | - | - |
* Rain latest hour (hover to see other rain measurements)
** Current wind speed in m/s (hover to see current wind gust speed)